Total_Precipitation_Accumulation
0.00 0.03 0.10 0.06 0.05 0.05 0.05 0.05 0.06 0.07 0.09 0.13 0.16 0.18 0.19 0.19 0.18 0.15 0.17 0.16 0.17 0.18 0.20 0.23 0.23 0.22 0.20 0.19 0.16 0.09 0.04 0.01 0.01 0.00 0.01 0.01 0.02 0.03 0.03 0.04 0.06 0.07 0.08
0.00 0.03 0.08 0.06 0.06 0.06 0.06 0.06 0.06 0.06 0.09 0.15 0.21 0.21 0.19 0.18 0.17 0.16 0.13 0.12 0.13 0.16 0.21 0.21 0.16 0.09 0.05 0.03 0.02 0.02 0.02 0.01 0.00 0.00 0.00 0.00 0.01 0.02 0.02 0.02 0.04 0.06 0.07
0.00 0.03 0.07 0.08 0.07 0.07 0.06 0.05 0.05 0.06 0.10 0.15 0.21 0.19 0.18 0.14 0.13 0.14 0.10 0.10 0.11 0.13 0.13 0.10 0.06 0.02 0.01 0.00 0.00 0.00 0.00 0.00 0.00 0.00 0.00 0.00 0.01 0.01 0.01 0.02 0.03 0.04 0.06
0.01 0.03 0.06 0.09 0.07 0.06 0.05 0.05 0.05 0.07 0.11 0.14 0.20 0.19 0.16 0.13 0.14 0.12 0.09 0.06 0.05 0.04 0.02 0.01 0.01 0.00 0.00 0.00 0.00 0.00 0.00 0.00 0.00 0.00 0.00 0.01 0.01 0.02 0.02 0.02 0.03 0.04 0.06
0.02 0.04 0.08 0.09 0.07 0.05 0.05 0.05 0.06 0.08 0.12 0.16 0.19 0.19 0.14 0.12 0.12 0.07 0.04 0.02 0.01 0.01 0.00 0.00 0.00 0.00 0.00 0.00 0.00 0.01 0.01 0.00 0.00 0.00 0.00 0.01 0.01 0.03 0.04 0.04 0.05 0.07 0.08
0.04 0.08 0.11 0.10 0.07 0.05 0.04 0.05 0.07 0.08 0.12 0.16 0.19 0.17 0.12 0.13 0.11 0.06 0.02 0.01 0.00 0.00 0.00 0.00 0.00 0.01 0.00 0.00 0.00 0.00 0.00 0.00 0.00 0.00 0.01 0.01 0.02 0.03 0.04 0.05 0.07 0.09 0.11
0.07 0.12 0.16 0.13 0.09 0.06 0.05 0.06 0.07 0.08 0.13 0.16 0.18 0.16 0.12 0.11 0.09 0.07 0.04 0.01 0.00 0.00 0.01 0.01 0.01 0.02 0.01 0.01 0.01 0.00 0.00 0.00 0.00 0.00 0.01 0.01 0.02 0.04 0.05 0.07 0.10 0.11 0.12
0.17 0.23 0.24 0.18 0.11 0.08 0.07 0.07 0.06 0.08 0.13 0.16 0.15 0.14 0.11 0.06 0.06 0.09 0.08 0.03 0.01 0.01 0.02 0.02 0.03 0.03 0.02 0.02 0.01 0.00 0.00 0.00 0.00 0.00 0.00 0.01 0.02 0.06 0.07 0.08 0.09 0.10 0.10
0.38 0.42 0.37 0.25 0.15 0.11 0.10 0.08 0.06 0.07 0.12 0.15 0.14 0.11 0.07 0.03 0.03 0.05 0.08 0.06 0.03 0.03 0.03 0.03 0.03 0.03 0.03 0.01 0.01 0.00 0.00 0.00 0.00 0.00 0.00 0.01 0.04 0.08 0.11 0.12 0.13 0.14 0.13
0.63 0.60 0.48 0.33 0.18 0.13 0.11 0.09 0.06 0.06 0.09 0.11 0.09 0.06 0.04 0.01 0.02 0.02 0.02 0.03 0.02 0.02 0.02 0.02 0.03 0.04 0.02 0.00 0.00 0.00 0.00 0.00 0.00 0.00 0.00 0.02 0.08 0.15 0.16 0.16 0.18 0.17 0.14
0.85 0.80 0.67 0.45 0.27 0.17 0.13 0.09 0.07 0.06 0.07 0.08 0.05 0.03 0.02 0.01 0.01 0.01 0.00 0.00 0.01 0.01 0.01 0.02 0.02 0.01 0.00 0.00 0.00 0.00 0.00 0.00 0.00 0.00 0.01 0.04 0.11 0.14 0.13 0.13 0.11 0.09 0.08
0.93 0.87 0.80 0.61 0.39 0.23 0.16 0.12 0.09 0.06 0.06 0.05 0.03 0.02 0.01 0.01 0.01 0.01 0.00 0.00 0.01 0.01 0.00 0.00 0.00 0.00 0.00 0.00 0.00 0.00 0.00 0.00 0.00 0.00 0.01 0.02 0.05 0.06 0.06 0.05 0.04 0.04 0.04
1.13 1.00 0.93 0.81 0.57 0.36 0.24 0.14 0.10 0.06 0.05 0.04 0.03 0.02 0.01 0.00 0.01 0.01 0.01 0.01 0.01 0.00 0.00 0.00 0.00 0.00 0.00 0.00 0.00 0.00 0.00 0.00 0.00 0.00 0.00 0.00 0.02 0.03 0.04 0.03 0.03 0.04 0.04
1.32 1.16 1.09 0.97 0.75 0.51 0.33 0.21 0.12 0.06 0.05 0.04 0.03 0.02 0.01 0.00 0.01 0.01 0.02 0.01 0.01 0.00 0.00 0.00 0.00 0.00 0.00 0.00 0.00 0.00 0.00 0.00 0.00 0.00 0.00 0.00 0.00 0.02 0.02 0.03 0.04 0.06 0.06
1.35 1.28 1.22 1.06 0.87 0.64 0.45 0.30 0.17 0.10 0.06 0.05 0.03 0.01 0.01 0.00 0.00 0.00 0.01 0.01 0.01 0.00 0.00 0.00 0.00 0.00 0.00 0.00 0.00 0.00 0.00 0.00 0.00 0.00 0.00 0.00 0.00 0.01 0.01 0.02 0.05 0.09 0.10
1.23 1.25 1.25 1.11 0.95 0.72 0.52 0.40 0.28 0.18 0.11 0.06 0.05 0.03 0.01 0.00 0.00 0.00 0.00 0.01 0.01 0.00 0.00 0.00 0.00 0.00 0.00 0.00 0.00 0.00 0.00 0.00 0.00 0.00 0.00 0.00 0.00 0.00 0.01 0.03 0.05 0.09 0.12
1.06 1.13 1.19 1.19 1.06 0.81 0.63 0.53 0.42 0.31 0.21 0.11 0.08 0.05 0.03 0.02 0.01 0.01 0.00 0.01 0.01 0.01 0.00 0.00 0.00 0.00 0.00 0.00 0.00 0.00 0.00 0.00 0.00 0.00 0.00 0.00 0.00 0.00 0.00 0.02 0.04 0.08 0.13
0.99 1.04 1.08 1.14 1.12 0.95 0.78 0.69 0.58 0.46 0.33 0.21 0.16 0.11 0.08 0.05 0.04 0.02 0.02 0.02 0.03 0.02 0.02 0.02 0.02 0.02 0.02 0.01 0.01 0.01 0.02 0.01 0.01 0.00 0.00 0.00 0.00 0.00 0.00 0.01 0.03 0.06 0.09
0.91 0.99 1.05 1.07 1.10 1.09 1.05 0.93 0.76 0.63 0.47 0.33 0.25 0.17 0.14 0.12 0.11 0.08 0.05 0.06 0.06 0.05 0.06 0.06 0.05 0.05 0.05 0.04 0.04 0.04 0.03 0.02 0.01 0.01 0.01 0.01 0.01 0.01 0.01 0.01 0.01 0.02 0.03
0.94 1.04 1.11 1.11 1.18 1.23 1.27 1.18 1.00 0.77 0.60 0.48 0.35 0.28 0.25 0.22 0.22 0.18 0.12 0.11 0.10 0.08 0.08 0.09 0.10 0.10 0.08 0.09 0.07 0.04 0.02 0.02 0.02 0.01 0.01 0.01 0.01 0.02 0.02 0.01 0.01 0.01 0.01
1.03 1.07 1.14 1.16 1.23 1.25 1.17 1.00 0.85 0.72 0.65 0.57 0.47 0.45 0.41 0.36 0.36 0.30 0.22 0.19 0.18 0.15 0.14 0.17 0.18 0.16 0.14 0.15 0.11 0.05 0.02 0.01 0.01 0.02 0.02 0.02 0.02 0.02 0.02 0.02 0.02 0.02 0.02
1.02 1.04 1.12 1.18 1.21 1.19 1.15 1.13 1.03 1.01 0.92 0.81 0.72 0.64 0.59 0.56 0.52 0.45 0.39 0.37 0.35 0.31 0.26 0.24 0.23 0.20 0.20 0.22 0.20 0.15 0.06 0.02 0.02 0.03 0.02 0.02 0.02 0.03 0.03 0.03 0.03 0.02 0.02
0.86 1.03 1.08 1.12 1.18 1.19 1.31 1.54 1.43 1.26 1.12 0.98 0.85 0.79 0.76 0.76 0.74 0.66 0.60 0.57 0.51 0.44 0.37 0.37 0.38 0.35 0.32 0.30 0.27 0.26 0.16 0.07 0.05 0.03 0.03 0.02 0.02 0.02 0.03 0.03 0.03 0.03 0.03
0.63 0.85 1.09 1.15 1.25 1.33 1.43 1.53 1.46 1.21 1.04 0.98 0.95 0.95 0.94 0.89 0.87 0.84 0.82 0.75 0.69 0.60 0.51 0.48 0.48 0.46 0.41 0.33 0.27 0.22 0.22 0.17 0.14 0.08 0.04 0.04 0.03 0.02 0.03 0.04 0.04 0.04 0.04
0.51 0.65 0.86 1.05 1.15 1.33 1.43 1.47 1.47 1.25 1.03 1.02 1.00 0.92 0.89 0.85 0.82 0.82 0.81 0.78 0.71 0.64 0.60 0.57 0.52 0.49 0.43 0.37 0.31 0.28 0.26 0.18 0.13 0.15 0.10 0.06 0.06 0.06 0.06 0.05 0.05 0.05 0.06
0.38 0.45 0.59 0.73 0.79 0.92 1.04 1.20 1.26 1.22 1.11 1.04 0.97 0.89 0.84 0.80 0.78 0.77 0.76 0.71 0.66 0.62 0.61 0.60 0.58 0.54 0.48 0.41 0.34 0.31 0.29 0.24 0.16 0.16 0.17 0.12 0.11 0.09 0.07 0.07 0.07 0.08 0.09